Wind_Speed
18 17 16 17 18 19 19 20 20 20 21 23 24 25 23 21 20 20 20 21 21 21 20 19 19 19 19 19 18 18 17 16 15 15 14 13 12 11 11 10 10 9 9
16 16 16 15 16 17 18 19 19 19 21 22 24 25 25 24 22 21 21 21 21 21 21 21 21 21 21 21 21 20 19 18 17 17 16 15 14 13 13 12 11 11 10
17 17 17 16 15 16 16 16 18 19 20 21 22 24 25 25 24 23 22 22 22 22 22 23 23 23 23 23 23 22 22 20 19 19 18 17 16 15 15 14 13 12 12
18 17 17 17 17 17 16 16 18 19 20 21 22 22 23 24 24 23 23 23 23 24 24 24 25 25 25 25 25 24 24 23 22 21 20 19 18 17 17 16 16 15 14
17 17 17 18 18 18 18 18 18 19 19 20 22 23 23 24 24 25 25 25 25 25 25 25 26 27 26 27 27 26 26 26 25 23 23 22 21 20 19 18 18 17 16
18 18 18 19 19 19 19 20 20 20 20 21 22 23 24 25 25 26 27 27 27 27 26 27 27 28 28 28 29 28 28 28 28 27 25 24 24 22 22 21 20 19 18
19 19 19 19 20 20 20 21 21 21 21 22 22 23 24 25 26 27 27 27 28 28 28 28 28 29 29 29 30 30 30 29 29 29 29 27 26 25 25 24 23 22 20
17 18 18 19 20 20 21 21 22 22 23 24 24 25 25 26 27 27 28 28 29 29 29 30 30 31 31 31 32 32 32 32 32 32 32 31 29 28 27 26 25 25 23
16 17 18 19 20 20 21 21 22 23 24 25 25 26 26 27 27 28 29 29 29 30 30 30 31 31 32 32 32 33 34 34 33 34 34 33 32 30 30 29 28 27 26
17 17 18 18 19 20 21 21 22 23 25 25 26 26 27 28 28 29 30 31 31 32 32 32 32 32 33 35 34 34 35 35 36 36 36 36 34 33 32 32 31 29 28
16 17 18 19 20 20 21 22 23 24 25 27 27 28 28 29 30 30 32 32 33 34 34 34 33 34 34 34 35 35 36 36 37 37 37 38 37 36 35 35 34 32 31
17 18 19 20 21 22 22 23 24 25 25 27 28 28 29 29 30 30 32 33 34 35 36 36 35 35 36 36 37 37 37 37 37 38 37 38 38 38 37 38 37 35 34
18 19 20 21 22 23 24 24 25 25 26 26 27 28 29 30 31 31 32 33 35 36 37 38 38 38 38 38 39 39 39 38 38 39 39 39 39 39 38 38 38 38 37
20 20 21 22 23 24 24 25 26 27 27 28 28 29 30 31 32 32 33 34 35 36 38 38 39 40 40 40 40 40 40 39 39 40 40 41 40 40 39 40 40 39 39
21 22 23 24 25 25 26 26 27 27 28 29 29 29 30 31 32 33 34 35 36 36 38 39 40 41 42 41 42 41 41 41 40 40 40 41 41 41 40 40 41 40 40
23 24 26 26 26 27 27 28 28 28 28 29 30 30 31 32 33 34 34 35 36 38 38 39 40 42 42 42 43 43 41 41 42 41 41 42 42 42 41 41 41 41 40
25 26 27 28 28 28 28 29 29 29 29 30 30 31 31 32 33 34 35 36 37 38 39 40 41 42 43 43 43 43 43 43 44 43 43 43 43 42 42 42 43 42 42
28 29 29 29 29 29 29 30 30 30 30 30 30 31 32 32 32 34 35 37 38 39 40 40 42 43 43 44 44 44 44 44 45 45 45 45 44 43 43 42 42 42 43
30 30 31 30 30 30 31 31 31 31 31 30 30 31 31 32 33 34 35 36 38 39 40 41 42 43 44 45 45 45 45 45 44 46 46 46 45 44 43 43 42 41 42
31 32 32 32 32 32 32 32 32 31 31 31 31 31 31 32 33 34 35 36 37 38 40 41 42 43 44 45 46 46 46 46 45 46 46 46 47 46 45 44 43 43 42
32 33 33 33 33 33 33 33 33 32 31 31 31 31 31 32 32 33 34 35 36 37 39 40 41 43 44 45 45 46 47 47 47 47 47 47 47 48 47 46 45 44 43
33 33 33 33 34 34 34 33 33 32 32 31 31 31 31 31 32 33 33 35 36 37 38 40 41 42 44 45 46 46 47 47 48 48 49 48 48 48 48 47 46 45 45
33 34 34 34 34 35 35 34 33 32 32 31 31 31 31 32 32 33 33 33 35 36 37 39 40 41 43 45 46 47 47 48 48 49 49 48 49 49 49 48 48 48 47
34 35 35 35 35 36 35 35 34 33 32 31 31 31 31 31 32 32 32 32 33 34 36 37 38 40 42 44 45 46 47 48 48 49 50 49 49 49 49 49 48 48 48
35 36 35 35 36 36 36 35 34 32 32 31 31 31 31 31 31 31 31 31 32 33 34 35 36 38 40 42 44 45 46 47 48 49 49 49 49 49 50 49 49 49 49
36 36 36 36 36 36 36 35 34 32 32 31 32 32 32 31 30 29 29 29 29 30 32 33 35 36 39 41 43 44 45 46 46 47 49 49 49 49 50 51 50 50 49
Wind_Direction
284 284 284 281 279 277 273 271 268 266 263 261 258 257 258 257 262 260 254 248 245 241 239 236 234 228 225 221 218 217 214 212 211 211 210 209 208 208 206 203 202 201 200
283 283 285 284 283 279 274 272 274 269 262 259 258 256 258 256 260 258 252 249 245 242 238 236 234 231 228 223 220 220 218 216 215 214 214 213 213 213 212 210 209 209 208
285 282 283 281 281 282 276 274 273 268 262 258 256 257 258 257 256 254 251 248 245 242 239 235 233 231 231 228 224 223 221 220 219 219 218 217 216 216 216 216 215 215 215
285 284 284 283 282 283 279 275 273 269 264 261 258 257 256 256 254 253 250 247 244 241 242 239 235 234 232 231 228 225 224 224 223 222 221 220 219 219 218 219 219 218 219
288 287 286 283 283 282 280 276 274 271 266 264 260 258 259 257 255 253 251 247 244 244 243 240 238 236 234 230 228 227 227 226 225 225 223 223 222 221 220 220 220 221 221
291 289 285 283 282 281 279 276 273 272 268 265 263 261 259 258 257 256 251 248 246 243 244 242 241 239 235 231 229 229 229 228 227 226 225 225 225 225 223 222 221 222 223
292 288 286 284 283 282 280 277 274 271 268 266 265 263 259 257 256 254 250 248 246 244 243 242 242 240 238 233 231 230 229 229 229 228 227 227 227 227 225 224 224 224 225
294 291 288 286 285 284 281 278 275 271 269 267 266 264 261 259 256 254 251 249 247 244 243 242 241 240 240 236 233 231 229 230 230 230 229 228 229 229 227 226 226 227 228
299 297 294 291 289 286 283 281 277 274 271 269 267 265 262 261 258 254 253 250 249 246 244 243 242 238 236 235 234 233 231 230 230 230 229 229 229 230 229 227 227 228 229
305 303 300 296 293 291 288 285 282 278 274 271 269 266 263 260 258 256 254 251 249 247 246 245 242 240 237 234 234 234 233 232 231 230 230 230 230 230 231 229 229 229 230
309 307 303 300 298 295 292 288 285 282 278 275 273 270 266 263 259 256 254 252 249 246 245 244 242 241 238 236 235 235 235 233 231 231 231 230 231 231 231 231 231 230 230
314 311 307 304 302 299 295 292 289 285 281 278 275 272 269 266 262 257 254 252 250 247 245 243 243 241 238 236 235 236 235 233 232 231 231 230 231 232 232 231 231 231 231
317 314 311 309 306 303 299 296 293 289 285 281 278 274 271 267 264 261 256 253 251 248 246 243 242 241 239 237 236 237 235 234 234 233 232 231 231 231 232 231 231 231 231
322 318 315 312 309 306 303 300 296 292 288 284 280 277 274 270 266 263 259 255 252 249 247 244 242 241 238 237 237 236 234 234 234 234 233 232 232 232 233 233 231 231 231
325 322 319 316 313 310 306 302 298 294 290 285 282 279 276 272 269 265 261 256 252 248 247 245 243 241 238 238 237 236 235 233 234 233 233 231 232 232 233 233 231 231 232
329 326 322 318 314 312 309 306 302 298 293 288 284 280 277 274 270 266 262 258 253 249 247 245 244 242 239 238 237 235 236 234 233 233 233 232 232 233 233 232 231 231 231
331 329 326 322 318 314 311 308 305 301 296 291 287 283 279 275 271 268 264 259 255 251 247 245 244 243 241 239 237 235 235 235 233 234 233 232 233 234 233 232 231 231 230
331 329 327 324 320 317 313 310 308 304 299 295 290 286 281 277 273 269 265 261 257 253 248 245 244 243 242 240 237 235 235 235 235 235 234 232 232 233 233 231 231 230 229
331 330 328 326 322 320 316 313 310 306 302 298 293 288 283 278 274 270 266 262 257 254 250 247 245 243 242 241 239 237 236 235 235 235 234 233 232 232 231 230 230 229 229
331 330 329 327 324 322 319 316 313 309 305 300 295 291 285 281 277 272 268 263 259 256 252 249 246 244 242 240 239 238 236 235 234 233 233 233 232 231 231 231 229 228 228
332 330 329 327 326 324 321 318 315 311 307 303 298 294 290 284 280 275 270 265 261 258 254 250 247 244 242 240 239 238 237 236 234 233 233 233 232 231 230 230 229 228 228
332 330 329 328 327 325 323 320 316 313 310 306 302 298 294 289 283 279 273 267 262 259 256 252 248 245 242 240 239 238 237 236 235 233 232 231 232 231 229 229 229 228 227
331 331 329 328 327 327 325 323 319 315 312 309 306 302 298 292 287 282 277 270 264 260 257 254 250 246 243 240 239 238 237 235 234 233 232 231 232 230 228 227 228 227 227
330 330 330 329 328 327 326 324 321 317 315 312 309 306 302 297 292 285 279 272 266 262 258 255 251 247 243 240 238 237 236 235 233 232 232 231 231 229 228 227 226 226 226
330 330 330 329 328 327 326 324 321 319 317 314 312 309 306 301 296 289 283 276 268 263 259 256 252 247 244 241 238 237 235 234 233 232 231 230 229 228 227 226 225 226 225
330 330 330 329 329 328 326 325 323 320 318 315 312 310 307 304 299 293 287 280 272 264 260 256 252 247 244 242 239 237 234 233 231 230 230 228 227 227 226 225 225 225 225
Height
5873 5872 5872 5871 5871 5870 5870 5870 5870 5870 5870 5870 5871 5872 5873 5874 5876 5876 5877 5878 5880 5881 5882 5885 5887 5889 5891 5894 5896 5898 5900 5902 5905 5907 5909 5910 5912 5914 5915 5917 5918 5919 5920
5869 5868 5868 5867 5866 5865 5865 5865 5865 5865 5865 5865 5866 5867 5868 5869 5870 5871 5873 5874 5875 5876 5878 5880 5882 5885 5887 5890 5892 5895 5897 5900 5902 5904 5906 5908 5910 5912 5914 5915 5917 5918 5920
5865 5864 5863 5863 5862 5861 5861 5860 5860 5860 5860 5860 5861 5862 5862 5863 5865 5866 5867 5869 5870 5871 5873 5875 5878 5881 5883 5885 5888 5891 5893 5896 5899 5901 5904 5906 5908 5910 5912 5914 5915 5917 5918
5860 5859 5859 5858 5857 5857 5856 5856 5856 5855 5855 5856 5856 5857 5857 5858 5859 5860 5862 5864 5865 5866 5868 5870 5873 5875 5878 5881 5883 5886 5889 5892 5895 5898 5900 5903 5905 5907 5909 5911 5913 5915 5917
5855 5855 5854 5853 5852 5852 5851 5851 5850 5850 5850 5850 5851 5851 5852 5852 5853 5854 5856 5858 5859 5860 5862 5865 5868 5870 5872 5875 5878 5881 5884 5887 5890 5893 5896 5899 5901 5904 5906 5908 5910 5913 5914
5851 5850 5849 5848 5847 5847 5846 5846 5845 5845 5845 5845 5845 5845 5846 5847 5847 5848 5850 5851 5853 5855 5856 5859 5862 5864 5867 5869 5872 5875 5878 5882 5885 5889 5892 5894 5897 5900 5902 5905 5907 5909 5912
5846 5845 5844 5843 5842 5841 5841 5840 5840 5840 5839 5839 5839 5840 5840 5841 5841 5842 5843 5845 5847 5848 5850 5853 5855 5858 5860 5863 5866 5869 5872 5876 5879 5883 5886 5889 5892 5895 5898 5901 5903 5906 5908
5842 5841 5839 5838 5837 5836 5835 5834 5834 5833 5833 5833 5833 5833 5834 5835 5835 5836 5837 5838 5840 5842 5844 5846 5848 5851 5854 5856 5859 5862 5865 5869 5873 5877 5880 5884 5887 5890 5893 5896 5899 5902 5904
5838 5836 5834 5833 5832 5830 5829 5828 5827 5827 5827 5827 5827 5827 5827 5828 5828 5829 5830 5831 5832 5834 5836 5838 5841 5843 5846 5849 5852 5855 5859 5862 5866 5870 5873 5877 5881 5884 5887 5891 5894 5897 5900
5833 5831 5829 5828 5826 5825 5824 5822 5821 5820 5820 5819 5819 5819 5820 5820 5821 5822 5823 5824 5825 5827 5828 5831 5833 5835 5838 5841 5844 5848 5851 5855 5858 5862 5866 5870 5874 5878 5881 5885 5888 5891 5895
5829 5827 5825 5823 5821 5819 5818 5816 5815 5814 5813 5812 5811 5811 5811 5812 5812 5813 5814 5815 5817 5819 5820 5823 5825 5827 5830 5833 5837 5840 5844 5847 5851 5854 5858 5862 5867 5870 5874 5878 5882 5885 5889
5825 5823 5820 5818 5816 5814 5812 5810 5808 5807 5805 5804 5803 5802 5802 5802 5803 5804 5805 5806 5808 5810 5812 5814 5816 5819 5821 5825 5828 5831 5835 5839 5843 5846 5850 5854 5858 5863 5866 5870 5875 5878 5882
5821 5818 5816 5813 5810 5808 5805 5803 5801 5799 5797 5796 5795 5794 5793 5793 5793 5794 5796 5797 5798 5800 5802 5805 5807 5809 5812 5816 5819 5823 5826 5830 5834 5838 5842 5846 5850 5854 5858 5863 5867 5871 5875
5816 5814 5810 5807 5804 5801 5799 5796 5793 5791 5789 5788 5786 5785 5784 5784 5784 5784 5785 5787 5788 5790 5792 5795 5797 5799 5803 5806 5810 5814 5817 5821 5825 5829 5833 5837 5841 5846 5850 5854 5859 5863 5867
5812 5809 5805 5802 5798 5795 5792 5789 5786 5783 5781 5779 5777 5776 5775 5774 5773 5774 5775 5776 5778 5780 5782 5784 5786 5789 5792 5796 5800 5804 5807 5811 5815 5819 5823 5828 5832 5837 5841 5845 5850 5855 5859
5807 5804 5800 5796 5792 5788 5785 5781 5778 5775 5772 5770 5768 5766 5765 5764 5763 5763 5764 5765 5767 5769 5771 5773 5775 5778 5781 5785 5789 5793 5797 5801 5805 5809 5814 5819 5823 5828 5832 5837 5841 5846 5851
5803 5798 5794 5790 5786 5781 5777 5774 5770 5766 5764 5761 5759 5757 5755 5754 5753 5752 5753 5753 5755 5757 5760 5762 5764 5767 5770 5775 5779 5783 5787 5791 5795 5799 5804 5809 5813 5818 5822 5827 5832 5837 5842
5798 5793 5788 5783 5779 5774 5770 5766 5762 5758 5755 5752 5749 5747 5745 5743 5742 5742 5742 5742 5743 5745 5748 5751 5753 5755 5759 5763 5767 5771 5776 5780 5784 5788 5793 5798 5803 5808 5812 5817 5822 5827 5833
5792 5787 5782 5777 5772 5767 5762 5758 5754 5749 5746 5742 5740 5737 5735 5733 5732 5731 5730 5731 5731 5733 5735 5738 5741 5743 5746 5750 5755 5759 5764 5769 5773 5777 5782 5787 5792 5797 5802 5808 5813 5818 5823
5787 5782 5776 5771 5766 5760 5755 5750 5745 5741 5737 5733 5730 5727 5724 5722 5721 5720 5719 5719 5719 5720 5722 5725 5728 5731 5734 5737 5742 5747 5752 5757 5761 5766 5771 5776 5781 5787 5792 5798 5803 5809 5814
5782 5776 5770 5765 5759 5753 5748 5742 5737 5732 5728 5724 5720 5717 5714 5712 5710 5708 5707 5707 5707 5708 5709 5712 5715 5718 5722 5725 5729 5734 5739 5744 5749 5754 5759 5765 5770 5776 5781 5787 5793 5799 5804
5776 5770 5764 5758 5752 5747 5741 5735 5729 5724 5719 5715 5711 5707 5704 5701 5699 5697 5695 5695 5695 5696 5697 5698 5701 5705 5708 5712 5716 5720 5726 5732 5738 5743 5747 5753 5758 5765 5770 5777 5782 5788 5794
5770 5764 5758 5752 5746 5740 5733 5727 5721 5716 5711 5706 5702 5698 5694 5690 5688 5685 5684 5683 5683 5683 5684 5686 5688 5691 5695 5699 5703 5708 5712 5718 5725 5730 5735 5742 5747 5753 5759 5765 5771 5777 5784
5765 5758 5752 5746 5739 5733 5726 5720 5713 5708 5702 5697 5693 5688 5684 5680 5677 5674 5672 5671 5670 5671 5671 5673 5676 5678 5681 5685 5689 5694 5699 5705 5711 5717 5722 5730 5735 5741 5747 5753 5760 5767 5773
5758 5752 5746 5739 5732 5726 5719 5712 5706 5700 5694 5689 5684 5679 5675 5671 5667 5663 5661 5660 5659 5659 5659 5661 5663 5665 5668 5672 5676 5681 5686 5692 5698 5704 5709 5717 5723 5729 5735 5742 5748 5755 5762
5752 5746 5739 5732 5726 5719 5712 5705 5699 5693 5687 5682 5676 5671 5666 5662 5657 5654 5651 5649 5648 5647 5648 5649 5651 5653 5656 5659 5663 5668 5673 5678 5684 5691 5697 5704 5710 5716 5723 5730 5737 5744 5751